When you browse on this site, cookies collect data to enhance your experience and personalize the content and advertising you see.
Visit our Privacy Policy to learn more. By continuing to use the site, you agree to this use of cookies and data.

Meteo pe oră la Serowe

Astăzi, 12 August, Miercuri

Timp Temperatura Precipitaţii Vânt Presiune Umiditate
00:00 +13°C° 0 mm 2 m/s 668 mmHg 52%
01:00 +13°C° 0 mm 2 m/s 668 mmHg 58%
02:00 +12°C° 0 mm 2 m/s 667 mmHg 64%
03:00 +12°C° 0 mm 2 m/s 667 mmHg 64%
04:00 +12°C° 0 mm 2 m/s 667 mmHg 63%
05:00 +12°C° 0 mm 2 m/s 667 mmHg 63%
06:00 +13°C° 0 mm 2 m/s 668 mmHg 55%
07:00 +15°C° 0 mm 2 m/s 669 mmHg 48%
08:00 +17°C° 0 mm 3 m/s 670 mmHg 38%
09:00 +20°C° 0 mm 3 m/s 670 mmHg 30%
10:00 +25°C° 0 mm 3 m/s 671 mmHg 23%
11:00 +28°C° 0 mm 3 m/s 672 mmHg 15%
12:00 +29°C° 0 mm 2 m/s 671 mmHg 13%
13:00 +31°C° 0 mm 2 m/s 670 mmHg 11%
14:00 +32°C° 0 mm 1 m/s 670 mmHg 9%
15:00 +31°C° 0 mm 1 m/s 670 mmHg 9%
16:00 +31°C° 0 mm 1 m/s 669 mmHg 9%
17:00 +30°C° 0 mm 2 m/s 669 mmHg 9%
18:00 +27°C° 0 mm 1 m/s 668 mmHg 12%
19:00 +23°C° 0 mm 1 m/s 668 mmHg 15%
20:00 +20°C° 0 mm 1 m/s 667 mmHg 18%
21:00 +19°C° 0 mm 1 m/s 668 mmHg 19%
22:00 +18°C° 0 mm 1 m/s 668 mmHg 20%
23:00 +16°C° 0 mm 1 m/s 668 mmHg 22%

Mâine, 13 August, Joi

Timp Temperatura Precipitaţii Vânt Presiune Umiditate
00:00 +16°C° 0 mm 1 m/s 668 mmHg 22%
01:00 +16°C° 0 mm 2 m/s 668 mmHg 22%
02:00 +16°C° 0 mm 2 m/s 668 mmHg 23%
03:00 +15°C° 0 mm 2 m/s 668 mmHg 23%
04:00 +15°C° 0 mm 2 m/s 668 mmHg 23%
05:00 +15°C° 0 mm 2 m/s 667 mmHg 23%
06:00 +16°C° 0 mm 2 m/s 668 mmHg 22%
07:00 +17°C° 0 mm 2 m/s 669 mmHg 20%
08:00 +18°C° 0 mm 2 m/s 670 mmHg 19%
09:00 +21°C° 0 mm 2 m/s 670 mmHg 15%
10:00 +25°C° 0 mm 3 m/s 671 mmHg 12%
11:00 +28°C° 0 mm 3 m/s 672 mmHg 9%
12:00 +29°C° 0 mm 3 m/s 671 mmHg 8%
13:00 +30°C° 0 mm 4 m/s 671 mmHg 7%
14:00 +32°C° 0 mm 4 m/s 670 mmHg 6%
15:00 +32°C° 0 mm 4 m/s 670 mmHg 7%
16:00 +30°C° 0 mm 5 m/s 670 mmHg 7%
17:00 +29°C° 0 mm 5 m/s 669 mmHg 7%
18:00 +26°C° 0 mm 4 m/s 669 mmHg 9%
19:00 +21°C° 0 mm 3 m/s 669 mmHg 10%
20:00 +18°C° 0 mm 3 m/s 668 mmHg 11%
21:00 +17°C° 0 mm 2 m/s 668 mmHg 10%
22:00 +16°C° 0 mm 2 m/s 668 mmHg 9%
23:00 +15°C° 0 mm 2 m/s 669 mmHg 8%

Poimâine, 14 August, Vineri

Timp Temperatura Precipitaţii Vânt Presiune Umiditate
00:00 +14°C° 0 mm 2 m/s 668 mmHg 8%
01:00 +14°C° 0 mm 2 m/s 668 mmHg 8%
02:00 +13°C° 0 mm 2 m/s 668 mmHg 8%
03:00 +12°C° 0 mm 2 m/s 668 mmHg 15%
04:00 +10°C° 0 mm 3 m/s 668 mmHg 23%
05:00 +9°C° 0 mm 3 m/s 668 mmHg 30%
06:00 +10°C° 0 mm 4 m/s 669 mmHg 47%
07:00 +9°C° 0 mm 6 m/s 669 mmHg 64%
08:00 +9°C° 0 mm 7 m/s 670 mmHg 81%
09:00 +11°C° 0 mm 6 m/s 670 mmHg 74%
10:00 +14°C° 0 mm 6 m/s 670 mmHg 67%
11:00 +15°C° 0 mm 6 m/s 671 mmHg 60%
12:00 +17°C° 0 mm 6 m/s 670 mmHg 51%
13:00 +20°C° 0 mm 5 m/s 670 mmHg 43%
14:00 +23°C° 0 mm 5 m/s 669 mmHg 35%
15:00 +22°C° 0 mm 4 m/s 669 mmHg 34%
16:00 +22°C° 0 mm 4 m/s 668 mmHg 34%
17:00 +22°C° 0 mm 3 m/s 668 mmHg 33%
18:00 +19°C° 0 mm 3 m/s 667 mmHg 45%
19:00 +16°C° 0 mm 3 m/s 667 mmHg 58%
20:00 +13°C° 0 mm 3 m/s 666 mmHg 70%
21:00 +12°C° 0 mm 3 m/s 667 mmHg 76%
22:00 +11°C° 0 mm 3 m/s 667 mmHg 81%
23:00 +10°C° 0 mm 3 m/s 667 mmHg 86%

15 August, Sâmbătă

Timp Temperatura Precipitaţii Vânt Presiune Umiditate
00:00 +10°C° 0 mm 3 m/s 666 mmHg 87%
01:00 +10°C° 0 mm 2 m/s 666 mmHg 88%
02:00 +9°C° 0 mm 2 m/s 666 mmHg 89%
03:00 +9°C° 0 mm 2 m/s 665 mmHg 89%
04:00 +9°C° 0 mm 2 m/s 665 mmHg 90%
05:00 +9°C° 0 mm 2 m/s 664 mmHg 90%
06:00 +10°C° 0 mm 2 m/s 665 mmHg 83%
07:00 +12°C° 0 mm 3 m/s 665 mmHg 75%
08:00 +13°C° 0 mm 3 m/s 666 mmHg 68%
09:00 +19°C° 0 mm 4 m/s 667 mmHg 51%
10:00 +23°C° 0 mm 4 m/s 667 mmHg 34%
11:00 +28°C° 0 mm 5 m/s 668 mmHg 18%
12:00 +29°C° 0 mm 4 m/s 667 mmHg 15%
13:00 +32°C° 0 mm 4 m/s 667 mmHg 12%
14:00 +33°C° 0 mm 4 m/s 666 mmHg 9%
15:00 +33°C° 0 mm 4 m/s 665 mmHg 10%
16:00 +32°C° 0 mm 4 m/s 665 mmHg 10%
17:00 +30°C° 0 mm 4 m/s 664 mmHg 10%
18:00 +27°C° 0 mm 4 m/s 664 mmHg 12%
19:00 +25°C° 0 mm 4 m/s 664 mmHg 14%
20:00 +21°C° 0 mm 3 m/s 664 mmHg 16%
21:00 +20°C° 0 mm 3 m/s 664 mmHg 16%
22:00 +20°C° 0 mm 3 m/s 664 mmHg 17%
23:00 +19°C° 0 mm 3 m/s 664 mmHg 17%

16 August, Duminică

Timp Temperatura Precipitaţii Vânt Presiune Umiditate
00:00 +19°C° 0 mm 3 m/s 664 mmHg 17%
01:00 +19°C° 0 mm 3 m/s 663 mmHg 17%
02:00 +19°C° 0 mm 3 m/s 663 mmHg 17%
03:00 +18°C° 0 mm 3 m/s 663 mmHg 18%
04:00 +17°C° 0 mm 3 m/s 663 mmHg 19%
05:00 +16°C° 0 mm 3 m/s 663 mmHg 20%
06:00 +17°C° 0 mm 3 m/s 663 mmHg 20%
07:00 +17°C° 0 mm 3 m/s 664 mmHg 20%
08:00 +18°C° 0 mm 3 m/s 665 mmHg 21%
09:00 +22°C° 0 mm 4 m/s 666 mmHg 17%
10:00 +27°C° 0 mm 5 m/s 667 mmHg 13%
11:00 +32°C° 0 mm 6 m/s 667 mmHg 9%
12:00 +32°C° 0 mm 6 m/s 667 mmHg 9%
13:00 +33°C° 0 mm 6 m/s 666 mmHg 8%
14:00 +34°C° 0 mm 7 m/s 666 mmHg 7%
15:00 +33°C° 0 mm 6 m/s 666 mmHg 7%
16:00 +33°C° 0 mm 6 m/s 666 mmHg 8%
17:00 +32°C° 0 mm 5 m/s 665 mmHg 8%
18:00 +27°C° 0 mm 5 m/s 665 mmHg 10%
19:00 +23°C° 0 mm 4 m/s 665 mmHg 12%
20:00 +19°C° 0 mm 4 m/s 665 mmHg 15%
21:00 +18°C° 0 mm 3 m/s 665 mmHg 17%
22:00 +16°C° 0 mm 3 m/s 665 mmHg 19%
23:00 +14°C° 0 mm 2 m/s 665 mmHg 22%

17 August, Luni

Timp Temperatura Precipitaţii Vânt Presiune Umiditate
00:00 +14°C° 0 mm 2 m/s 665 mmHg 24%
01:00 +13°C° 0 mm 2 m/s 665 mmHg 27%
02:00 +11°C° 0 mm 3 m/s 665 mmHg 29%
03:00 +11°C° 0 mm 3 m/s 665 mmHg 31%
04:00 +10°C° 0 mm 3 m/s 665 mmHg 33%
05:00 +10°C° 0 mm 4 m/s 665 mmHg 34%
06:00 +9°C° 0 mm 5 m/s 666 mmHg 50%
07:00 +10°C° 0 mm 6 m/s 666 mmHg 66%
08:00 +11°C° 0 mm 8 m/s 667 mmHg 82%
09:00 +13°C° 0 mm 8 m/s 667 mmHg 74%
10:00 +15°C° 0 mm 8 m/s 668 mmHg 65%
11:00 +17°C° 0 mm 7 m/s 668 mmHg 57%
12:00 +20°C° 0 mm 7 m/s 668 mmHg 50%
13:00 +22°C° 0 mm 7 m/s 667 mmHg 44%
14:00 +24°C° 0 mm 7 m/s 667 mmHg 38%
15:00 +23°C° 0 mm 7 m/s 666 mmHg 40%
16:00 +22°C° 0 mm 7 m/s 666 mmHg 42%
17:00 +22°C° 0 mm 6 m/s 666 mmHg 45%
18:00 +19°C° 0 mm 6 m/s 666 mmHg 56%
19:00 +16°C° 0 mm 6 m/s 666 mmHg 67%
20:00 +13°C° 0 mm 5 m/s 666 mmHg 79%
21:00 +13°C° 0 mm 6 m/s 666 mmHg 82%
22:00 +11°C° 0 mm 6 m/s 666 mmHg 86%
23:00 +11°C° 0 mm 6 m/s 666 mmHg 90%
Arată mai mult